Location: Foulognes
(49.1413°N, 0.8183°W)
Time: 13:11:19
(UTC+00:00)

STARLINK-61 - Pass Details

Date: 21 October 2019
Orbit: 530 x 533 km, 53.0° (Epoch: 14 November)

Event Time Altitude Azimuth Distance (km) Brightness Sun altitude
Rises 18:00:41 0° 278° (W) 2,676 9.0 -10.2°
Reaches altitude 10° 18:02:58 10° 285° (WNW) 1,786 7.5 -10.6°
Maximum altitude 18:06:54 47° 360° (N) 712 4.1 -11.2°
Enters shadow 18:09:50 17° 70° (ENE) 1,416 5.1 -11.7°
